NEWPRT Weather Reports


Display with metric or nautical units.
time (UTC)temp
F
wind
direction
speed
MPH
gust
MPH
rain 1hr
in
rain 24hr
in
rain mn
in
humidity
%
barometer
mb
20260509012241 0 109 1.0 6.0 0.00 0.00 0.00 46 1023.3
20260509011717 0 98 1.0 6.0 0.00 0.00 0.00 44 1023.2
20260509011154 0 105 0.0 5.0 0.00 0.00 0.00 45 1023.3
20260509010631 0 114 2.0 4.0 0.00 0.00 0.00 45 1023.3
20260509010108 0 82 0.0 4.0 0.00 0.00 0.00 42 1023.2
20260509005545 0 128 0.0 4.0 0.00 0.00 0.00 48 1023.5
20260509005023 0 37 1.0 4.0 0.00 0.00 0.00 47 1023.4
20260509004459 0 96 1.0 4.0 0.00 0.00 0.00 45 1023.4
20260509003936 0 116 1.0 6.0 0.00 0.00 0.00 45 1023.4
20260509003413 0 18 0.0 6.0 0.00 0.00 0.00 46 1023.4
20260509002850 0 47 2.0 6.0 0.00 0.00 0.00 46 1023.8
20260509002327 0 96 2.0 8.0 0.00 0.00 0.00 46 1023.6
20260509001804 0 162 3.0 8.0 0.00 0.00 0.00 46 1023.8
20260509001241 0 42 1.0 7.0 0.00 0.00 0.00 45 1023.6
20260509000718 0 18 1.0 7.0 0.00 0.00 0.00 47 1023.8
20260509000155 0 19 1.0 7.0 0.00 0.00 0.00 47 1024.1
20260508235632 0 57 1.0 7.0 0.00 0.00 0.00 47 1024.0
20260508235109 0 119 0.0 7.0 0.00 0.00 0.00 48 1023.9
20260508234546 0 109 2.0 9.0 0.00 0.00 0.00 46 1023.8
20260508234024 0 49 0.0 9.0 0.00 0.00 0.00 48 1024.1
20260508233500 0 46 1.0 9.0 0.00 0.00 0.00 47 1024.0
20260508232937 0 117 3.0 8.0 0.00 0.00 0.00 49 1024.1
20260508232414 0 42 2.0 8.0 0.00 0.00 0.00 48 1024.0
20260508231851 0 22 2.0 8.0 0.00 0.00 0.00 49 1023.9
20260508231328 0 44 2.0 8.0 0.00 0.00 0.00 48 1024.1
20260508230805 0 28 4.0 7.0 0.00 0.00 0.00 46 1024.2
20260508230242 0 26 1.0 7.0 0.00 0.00 0.00 49 1024.2
20260508225719 0 30 2.0 7.0 0.00 0.00 0.00 48 1024.2
20260508225156 0 30 1.0 8.0 0.00 0.00 0.00 48 1024.0
20260508224633 0 28 1.0 8.0 0.00 0.00 0.00 49 1024.2
20260508224110 0 56 1.0 8.0 0.00 0.00 0.00 48 1024.3
20260508223547 0 42 1.0 9.0 0.00 0.00 0.00 46 1024.1
20260508223024 0 21 5.0 9.0 0.00 0.00 0.00 48 1024.0
20260508222501 0 54 4.0 9.0 0.00 0.00 0.00 46 1023.8
20260508221938 0 60 3.0 9.0 0.00 0.00 0.00 43 1023.9
20260508221415 0 46 2.0 9.0 0.00 0.00 0.00 44 1024.0
20260508220852 0 50 0.0 9.0 0.00 0.00 0.00 43 1024.0
20260508220329 0 44 0.0 9.0 0.00 0.00 0.00 45 1023.9
20260508215805 0 46 4.0 9.0 0.00 0.00 0.00 43 1023.9
20260508215243 0 40 1.0 10.0 0.00 0.00 0.00 44 1023.9
20260508214719 0 43 3.0 10.0 0.00 0.00 0.00 46 1024.1
20260508214156 0 47 4.0 9.0 0.00 0.00 0.00 43 1024.0
20260508213633 0 50 0.0 7.0 0.00 0.00 0.00 45 1024.0
20260508213110 0 42 2.0 10.0 0.00 0.00 0.00 46 1023.9
20260508212547 0 60 2.0 10.0 0.00 0.00 0.00 45 1023.9
20260508212025 0 40 0.0 10.0 0.00 0.00 0.00 43 1023.6
20260508211501 0 35 5.0 8.0 0.00 0.00 0.00 39 1023.9
20260508210940 0 284 0.0 6.0 0.00 0.00 0.00 36 1023.9
20260508210415 0 184 0.0 5.0 0.00 0.00 0.00 35 1023.9
20260508205852 0 284 1.0 5.0 0.00 0.00 0.00 36 1023.9
20260508205329 0 110 0.0 3.0 0.00 0.00 0.00 36 1023.6
20260508204807 0 245 0.0 1.0 0.00 0.00 0.00 37 1023.5
20260508204243 0 306 0.0 1.0 0.00 0.00 0.00 36 1023.6
20260508203720 0 14 0.0 1.0 0.00 0.00 0.00 36 1023.6
20260508203157 0 259 0.0 4.0 0.00 0.00 0.00 37 1023.5
20260508202634 0 259 0.0 4.0 0.00 0.00 0.00 40 1023.5
20260508202111 0 275 0.0 5.0 0.00 0.00 0.00 39 1023.6
20260508201548 0 271 0.0 5.0 0.00 0.00 0.00 37 1023.5
20260508201025 0 113 0.0 5.0 0.00 0.00 0.00 42 1023.4
20260508200502 0 236 0.0 5.0 0.00 0.00 0.00 41 1023.6
20260508195939 0 29 0.0 5.0 0.00 0.00 0.00 44 1023.6
20260508195416 0 28 0.0 5.0 0.00 0.00 0.00 38 1023.5
20260508194853 0 281 0.0 5.0 0.00 0.00 0.00 41 1023.2
20260508194330 0 245 1.0 5.0 0.00 0.00 0.00 44 1023.6
20260508193807 0 210 0.0 5.0 0.00 0.00 0.00 41 1023.5
20260508193244 0 179 0.0 5.0 0.00 0.00 0.00 42 1023.5
20260508192721 0 329 0.0 5.0 0.00 0.00 0.00 43 1023.5
20260508192158 0 284 0.0 3.0 0.00 0.00 0.00 44 1023.5
20260508191635 0 224 0.0 3.0 0.00 0.00 0.00 41 1023.4
20260508191112 0 305 0.0 3.0 0.00 0.00 0.00 45 1023.4
20260508190549 0 154 0.0 2.0 0.00 0.00 0.00 42 1023.4
20260508190026 0 0 0.0 6.0 0.00 0.00 0.00 44 1023.4
20260508185503 0 298 0.0 6.0 0.00 0.00 0.00 45 1023.4
20260508184940 0 47 0.0 6.0 0.00 0.00 0.00 44 1023.3
20260508184417 0 0 0.0 5.0 0.00 0.00 0.00 46 1023.2
20260508183854 0 145 0.0 5.0 0.00 0.00 0.00 50 1023.4
20260508183332 0 72 0.0 5.0 0.00 0.00 0.00 50 1023.3
20260508182809 0 58 0.0 1.0 0.00 0.00 0.00 53 1023.2
20260508182245 0 0 0.0 0.0 0.00 0.00 0.00 54 1023.0
20260508181722 0 0 0.0 0.0 0.00 0.00 0.00 56 1023.0
20260508181159 0 0 0.0 3.0 0.00 0.00 0.00 57 1023.1
20260508180636 0 0 0.0 3.0 0.00 0.00 0.00 57 1023.1
20260508180113 0 165 0.0 3.0 0.00 0.00 0.00 55 1023.1
20260508175550 0 0 0.0 0.0 0.00 0.00 0.00 56 1023.0
20260508175027 0 0 0.0 0.0 0.00 0.00 0.00 56 1023.0
20260508174504 0 0 0.0 2.0 0.00 0.00 0.00 55 1023.1
20260508173941 0 0 0.0 2.0 0.00 0.00 0.00 53 1023.0
20260508173418 0 165 0.0 2.0 0.00 0.00 0.00 53 1023.1
20260508172856 0 0 0.0 0.0 0.00 0.00 0.00 53 1022.9
20260508172332 0 0 0.0 0.0 0.00 0.00 0.00 54 1022.9
20260508171809 0 0 0.0 0.0 0.00 0.00 0.00 55 1022.9
20260508171246 0 0 0.0 0.0 0.00 0.00 0.00 54 1022.9
20260508170723 0 0 0.0 0.0 0.00 0.00 0.00 55 1022.9
20260508170200 0 0 0.0 0.0 0.00 0.00 0.00 54 1023.0
20260508165637 0 0 0.0 0.0 0.00 0.00 0.00 56 1022.9
20260508165114 0 0 0.0 0.0 0.00 0.00 0.00 53 1022.9
20260508164553 0 0 0.0 0.0 0.00 0.00 0.00 55 1022.9
20260508164029 0 0 0.0 0.0 0.00 0.00 0.00 56 1022.7
20260508163505 0 0 0.0 0.0 0.00 0.00 0.00 54 1022.6
20260508162942 0 0 0.0 0.0 0.00 0.00 0.00 56 1022.6
20260508162419 0 0 0.0 0.0 0.00 0.00 0.00 57 1022.6
20260508161856 0 0 0.0 0.0 0.00 0.00 0.00 56 1022.6
20260508161333 0 0 0.0 0.0 0.00 0.00 0.00 59 1022.5
20260508160810 0 0 0.0 0.0 0.00 0.00 0.00 59 1022.4
20260508160247 0 0 0.0 0.0 0.00 0.00 0.00 60 1022.5
20260508155724 0 0 0.0 0.0 0.00 0.00 0.00 60 1022.5
20260508155201 0 0 0.0 0.0 0.00 0.00 0.00 60 1022.3
20260508154638 0 0 0.0 0.0 0.00 0.00 0.00 61 1022.3
20260508154115 0 0 0.0 0.0 0.00 0.00 0.00 60 1022.3
20260508153552 0 0 0.0 0.0 0.00 0.00 0.00 58 1022.3
20260508153029 0 0 0.0 0.0 0.00 0.00 0.00 58 1022.3
20260508152506 0 0 0.0 0.0 0.00 0.00 0.00 58 1022.0
20260508151943 0 0 0.0 0.0 0.00 0.00 0.00 61 1022.2
20260508151420 0 0 0.0 0.0 0.00 0.00 0.00 60 1022.2
20260508150857 0 0 0.0 0.0 0.00 0.00 0.00 60 1022.0
20260508150334 0 0 0.0 0.0 0.00 0.00 0.00 58 1021.6
20260508145811 0 0 0.0 0.0 0.00 0.00 0.00 60 1021.7
20260508145248 0 0 0.0 0.0 0.00 0.00 0.00 61 1021.8
20260508144725 0 0 0.0 0.0 0.00 0.00 0.00 61 1021.8
20260508144202 0 0 0.0 0.0 0.00 0.00 0.00 61 1021.5
20260508143639 0 0 0.0 0.0 0.00 0.00 0.00 61 1021.2
20260508143116 0 0 0.0 0.0 0.00 0.00 0.00 61 1021.5
20260508142552 0 0 0.0 0.0 0.00 0.00 0.00 61 1021.6
20260508142030 0 0 0.0 0.0 0.00 0.00 0.00 61 1021.2
20260508141506 0 40 0.0 0.0 0.00 0.00 0.00 62 1020.9
20260508140944 0 0 0.0 0.0 0.00 0.00 0.00 61 1020.8
20260508140420 0 0 0.0 2.0 0.00 0.00 0.00 62 1021.3
20260508135857 0 0 0.0 2.0 0.00 0.00 0.00 61 1021.3
20260508135334 0 44 0.0 2.0 0.00 0.00 0.00 61 1020.8
20260508134812 0 0 0.0 0.0 0.00 0.00 0.00 60 1020.2
20260508134248 0 0 0.0 0.0 0.00 0.00 0.00 59 1020.6
20260508133729 0 0 0.0 0.0 0.00 0.00 0.00 59 1020.6
20260508133203 0 0 0.0 0.0 0.00 0.00 0.00 58 1020.6
20260508132639 0 0 0.0 2.0 0.00 0.00 0.00 58 1021.0
20260508132116 0 0 0.0 2.0 0.00 0.00 0.00 58 1020.9
20260508131554 0 233 0.0 2.0 0.00 0.00 0.00 59 1021.0
20260508131030 0 0 0.0 3.0 0.00 0.00 0.00 61 1021.1
20260508130507 0 110 0.0 3.0 0.00 0.00 0.00 61 1021.2
20260508125944 0 133 0.0 3.0 0.00 0.00 0.00 60 1021.2
20260508125421 0 0 0.0 4.0 0.00 0.00 0.00 57 1021.1
20260508124858 0 0 0.0 4.0 0.00 0.00 0.00 58 1021.0
20260508124335 0 65 0.0 4.0 0.00 0.00 0.00 59 1021.1
20260508123812 0 273 0.0 3.0 0.00 0.00 0.00 58 1021.0
20260508123249 0 33 0.0 3.0 0.00 0.00 0.00 61 1021.1
20260508122726 0 99 0.0 2.0 0.00 0.00 0.00 64 1021.1
20260508122203 0 0 0.0 2.0 0.00 0.00 0.00 65 1021.2
20260508121640 0 0 0.0 2.0 0.00 0.00 0.00 63 1020.9
20260508121118 0 154 0.0 5.0 0.00 0.00 0.00 64 1021.1
20260508120554 0 247 1.0 5.0 0.00 0.00 0.00 66 1020.8
20260508120031 0 163 0.0 5.0 0.00 0.00 0.00 65 1020.9
20260508115508 0 0 0.0 0.0 0.00 0.00 0.00 67 1021.0
20260508114945 0 0 0.0 0.0 0.00 0.00 0.00 67 1020.9
20260508114422 0 0 0.0 0.0 0.00 0.00 0.00 66 1020.8
20260508113859 0 0 0.0 0.0 0.00 0.00 0.00 67 1020.6
20260508113336 0 0 0.0 0.0 0.00 0.00 0.00 67 1020.5
20260508112813 0 0 0.0 0.0 0.00 0.00 0.00 66 1020.5
20260508112250 0 0 0.0 0.0 0.00 0.00 0.00 67 1020.5
20260508111727 0 0 0.0 0.0 0.00 0.00 0.00 67 1020.4
20260508111204 0 0 0.0 0.0 0.00 0.00 0.00 67 1020.3
20260508110641 0 0 0.0 0.0 0.00 0.00 0.00 66 1020.3
20260508110119 0 0 0.0 0.0 0.00 0.00 0.00 67 1020.3
20260508105557 0 0 0.0 0.0 0.00 0.00 0.00 67 1020.2
20260508105032 0 0 0.0 0.0 0.00 0.00 0.00 67 1020.3
20260508104509 0 0 0.0 0.0 0.00 0.00 0.00 67 1020.4
20260508103946 0 0 0.0 0.0 0.00 0.00 0.00 66 1020.3
20260508103423 0 0 0.0 0.0 0.00 0.00 0.00 67 1020.2
20260508102900 0 0 0.0 0.0 0.00 0.00 0.00 67 1020.3
20260508102337 0 0 0.0 0.0 0.00 0.00 0.00 67 1020.2
20260508101814 0 0 0.0 0.0 0.00 0.00 0.00 66 1020.1
20260508101251 0 0 0.0 0.0 0.00 0.00 0.00 67 1020.0
20260508100728 0 0 0.0 0.0 0.00 0.00 0.00 67 1020.1
20260508100205 0 0 0.0 0.0 0.00 0.00 0.00 66 1019.9
20260508095643 0 0 0.0 0.0 0.00 0.00 0.00 66 1019.9
20260508095120 0 0 0.0 0.0 0.00 0.00 0.00 66 1019.8
20260508094556 0 0 0.0 0.0 0.00 0.00 0.00 66 1020.0
20260508094033 0 0 0.0 0.0 0.00 0.00 0.00 66 1020.0
20260508093510 0 0 0.0 0.0 0.00 0.00 0.00 65 1019.8
20260508092947 0 0 0.0 0.0 0.00 0.00 0.00 65 1019.8
20260508092424 0 0 0.0 0.0 0.00 0.00 0.00 65 1019.9
20260508091901 0 0 0.0 0.0 0.00 0.00 0.00 65 1019.9
20260508091338 0 0 0.0 0.0 0.00 0.00 0.00 64 1019.7
20260508090815 0 0 0.0 0.0 0.00 0.00 0.00 64 1019.7
20260508090252 0 0 0.0 0.0 0.00 0.00 0.00 64 1019.8
20260508085729 0 0 0.0 0.0 0.00 0.00 0.00 64 1019.8
20260508085206 0 0 0.0 1.0 0.00 0.00 0.00 64 1019.6
20260508084643 0 0 0.0 1.0 0.00 0.00 0.00 64 1019.5
20260508084120 0 0 0.0 1.0 0.00 0.00 0.00 65 1019.5
20260508083557 0 127 0.0 3.0 0.00 0.00 0.00 65 1019.5
20260508083034 0 128 0.0 3.0 0.00 0.00 0.00 65 1019.5
20260508082511 0 128 0.0 3.0 0.00 0.00 0.00 63 1019.1
20260508081950 0 0 0.0 0.0 0.00 0.00 0.00 66 1019.3
20260508081425 0 0 0.0 0.0 0.00 0.00 0.00 65 1019.4
20260508080902 0 119 0.0 3.0 0.00 0.00 0.00 65 1019.2
20260508080339 0 128 0.0 3.0 0.00 0.00 0.00 66 1019.1
20260508075817 0 0 0.0 3.0 0.00 0.00 0.00 66 1019.2
20260508075253 0 134 0.0 5.0 0.00 0.00 0.00 65 1019.0
20260508074730 0 127 0.0 5.0 0.00 0.00 0.00 66 1019.3
20260508074207 0 127 0.0 5.0 0.00 0.00 0.00 66 1019.3
20260508073645 0 128 2.0 5.0 0.00 0.00 0.00 65 1019.2
20260508073121 0 128 2.0 5.0 0.00 0.00 0.00 66 1019.2
20260508072558 0 131 2.0 5.0 0.00 0.00 0.00 66 1019.2
20260508072035 0 123 3.0 5.0 0.00 0.00 0.00 66 1019.1
20260508071512 0 128 3.0 5.0 0.00 0.00 0.00 66 1019.1
20260508070949 0 114 3.0 5.0 0.00 0.00 0.00 66 1019.0
20260508070426 0 124 4.0 5.0 0.00 0.00 0.00 66 1019.0
20260508065903 0 113 3.0 6.0 0.00 0.00 0.00 66 1019.1
20260508065340 0 123 3.0 6.0 0.00 0.00 0.00 66 1019.1
20260508064817 0 131 3.0 6.0 0.00 0.00 0.00 66 1019.2
20260508064253 0 106 4.0 7.0 0.00 0.00 0.00 66 1019.1
20260508063730 0 116 4.0 7.0 0.00 0.00 0.00 66 1019.0
20260508063208 0 110 4.0 7.0 0.00 0.00 0.00 66 1018.8
20260508062645 0 124 4.0 7.0 0.00 0.00 0.00 66 1018.9
20260508062121 0 106 4.0 7.0 0.00 0.00 0.00 66 1019.0
20260508061558 0 91 4.0 6.0 0.00 0.00 0.00 66 1018.9
20260508061035 0 78 3.0 6.0 0.00 0.00 0.00 66 1018.8
20260508060512 0 119 4.0 6.0 0.00 0.00 0.00 66 1018.8
20260508055949 0 99 4.0 6.0 0.00 0.00 0.00 66 1018.8
20260508055426 0 103 3.0 6.0 0.00 0.00 0.00 66 1018.8
20260508054903 0 110 3.0 6.0 0.00 0.00 0.00 65 1018.8
20260508054341 0 107 4.0 5.0 0.00 0.00 0.00 67 1018.9
20260508053817 0 88 0.0 5.0 0.00 0.00 0.00 67 1018.9
20260508053254 0 0 1.0 3.0 0.00 0.00 0.00 66 1018.8
20260508052731 0 103 0.0 3.0 0.00 0.00 0.00 66 1018.7
20260508052208 0 0 0.0 0.0 0.00 0.00 0.00 66 1018.6
20260508051647 0 0 0.0 0.0 0.00 0.00 0.00 67 1018.6
20260508051123 0 0 0.0 1.0 0.00 0.00 0.00 66 1018.7
20260508050600 0 0 0.0 1.0 0.00 0.00 0.00 66 1018.6
20260508050036 0 88 0.0 1.0 0.00 0.00 0.00 66 1018.7
20260508045514 0 0 0.0 0.0 0.00 0.00 0.00 66 1018.8
20260508044950 0 0 0.0 4.0 0.00 0.00 0.00 66 1018.9
20260508044428 0 0 0.0 4.0 0.00 0.00 0.00 64 1018.8
20260508043904 0 107 1.0 4.0 0.00 0.00 0.00 62 1018.8
20260508043342 0 0 0.0 0.0 0.00 0.00 0.00 65 1018.8
20260508042819 0 0 0.0 0.0 0.00 0.00 0.00 66 1018.8
20260508042255 0 0 0.0 0.0 0.00 0.00 0.00 62 1018.6
20260508041732 0 0 0.0 3.0 0.00 0.00 0.00 65 1018.7
20260508041210 0 105 0.0 3.0 0.00 0.00 0.00 64 1018.6
20260508040646 0 0 0.0 0.0 0.00 0.00 0.00 64 1018.7
20260508040123 0 0 0.0 0.0 0.00 0.00 0.00 62 1018.5
20260508035601 0 0 0.0 2.0 0.00 0.00 0.00 63 1018.6
20260508035037 0 0 0.0 2.0 0.00 0.00 0.00 65 1018.6
20260508034514 0 260 0.0 2.0 0.00 0.00 0.00 64 1018.6
20260508033951 0 0 0.0 1.0 0.00 0.00 0.00 63 1018.5
20260508033428 0 264 0.0 5.0 0.00 0.00 0.00 64 1018.5
20260508032905 0 49 0.0 5.0 0.00 0.00 0.00 64 1018.5
20260508032343 0 103 0.0 5.0 0.00 0.00 0.00 61 1018.4
20260508031819 0 114 0.0 6.0 0.00 0.00 0.00 64 1018.5
20260508031256 0 92 0.0 6.0 0.00 0.00 0.00 64 1018.3
20260508030733 0 96 1.0 5.0 0.00 0.00 0.00 63 1018.3
20260508030210 0 120 1.0 4.0 0.00 0.00 0.00 62 1018.2
20260508025647 0 103 0.0 6.0 0.00 0.00 0.00 62 1018.3
20260508025124 0 106 2.0 6.0 0.00 0.00 0.00 62 1018.2
20260508024601 0 92 3.0 9.0 0.00 0.00 0.00 63 1018.2
20260508024039 0 105 2.0 9.0 0.00 0.00 0.00 61 1018.1
20260508023516 0 96 4.0 9.0 0.00 0.00 0.00 60 1018.5
20260508022952 0 135 4.0 11.0 0.00 0.00 0.00 60 1018.4
20260508022429 0 85 5.0 11.0 0.00 0.00 0.00 62 1018.5
20260508021906 0 98 5.0 11.0 0.00 0.00 0.00 58 1018.5
20260508021343 0 67 6.0 10.0 0.00 0.00 0.00 60 1018.7
20260508020820 0 72 5.0 10.0 0.00 0.00 0.00 58 1018.5
20260508020257 0 114 6.0 10.0 0.00 0.00 0.00 58 1018.4
20260508015734 0 92 6.0 10.0 0.00 0.00 0.00 60 1018.6
20260508015211 0 86 5.0 10.0 0.00 0.00 0.00 58 1018.6
20260508014648 0 91 5.0 11.0 0.00 0.00 0.00 59 1018.6
20260508014125 0 96 6.0 11.0 0.00 0.00 0.00 55 1018.5
20260508013602 0 95 7.0 10.0 0.00 0.00 0.00 54 1018.6
20260508013039 0 91 6.0 11.0 0.00 0.00 0.00 54 1018.6